Regional Weather Roundup
Issued by NWS

Home | Current Version | Previous Version | Text Only | Print | Product List | Glossary Off
Versions: 1 2 3 4 5 6 7 8 9 10 11 12 13 14 15 16 17 18 19 20 21 22 23 24 25 26 27 28 29 30 31 32 33 34 35 36 37 38 39 40 41 42 43 44 45 46 47 48 49 50

000
ASUS43 KMKX 201800
RWRWI

WISCONSIN REGIONAL WEATHER ROUNDUP
NATIONAL WEATHER SERVICE MILWAUKEE/SULLIVAN WI
100 PM CDT MON OCT 20 2014

NOTE: "FAIR" INDICATES FEW OR NO CLOUDS BELOW 12,000 FEET WITH NO
SIGNIFICANT WEATHER AND/OR OBSTRUCTIONS TO VISIBILITY.

WIZ001-002-006>008-014>016-023>028-201900-
NORTHWEST WISCONSIN

CITY           SKY/WX    TMP DP  RH WIND       PRES   REMARKS
SUPERIOR ARPT  CLOUDY    52  43  72 NW7       30.00R
ASHLAND        CLOUDY    54  41  61 NW10      29.97S
6HR MIN TEMP:  44; 6HR MAX TEMP:  55;

HAYWARD        CLOUDY    52  39  61 N7        29.97S
6HR MIN TEMP:  34; 6HR MAX TEMP:  53;

SIREN          CLOUDY    55  39  54 N9        29.99S
CUMBERLAND     CLOUDY    52  37  58 N12       29.98S
RICE LAKE      CLOUDY    53  40  59 NW10G17   29.99R
CHETEK         CLOUDY    53  40  62 N7G16     29.97S
LADYSMITH      CLOUDY    53  41  65 NW7       29.97S
EAU CLAIRE     NOT AVBL
MENOMONIE      PTSUNNY   57  42  57 NW13      29.97S
NEW RICHMOND   MOSUNNY   58  41  53 NW9       29.99S
OSCEOLA        MOSUNNY   58  43  58 N9G17     30.01S
$$

WIZ003>005-009-010-017-018-201900-
NORTH CENTRAL WISCONSIN

CITY           SKY/WX    TMP DP  RH WIND       PRES   REMARKS
MANITOWISH WTR CLOUDY    46  42  83 N5        29.92S
ARBOR VITAE    CLOUDY    47  44  87 N12       29.92R
WOODRUFF       CLOUDY    47  44  87 N12       29.92R
RHINELANDER    PTSUNNY   48  40  73 NW7G16    29.91S
6HR MIN TEMP:  44; 6HR MAX TEMP:  49; 6HR PCP:  0.01;

EAGLE RIVER    RAIN      47  42  84 N14       29.90S
LAND O LAKES   LGT RAIN  47  43  85 N10       29.91S
PHILLIPS       CLOUDY    48  41  75 N9        29.93S
TOMAHAWK       CLOUDY    47  42  81 NW9       29.93R
MEDFORD        CLOUDY    49  41  73 N10G16    29.93S
MERRILL        CLOUDY    51  42  71 N10G16    29.91S
$$

WIZ029-030-035-036-043>047-201900-
CENTRAL WISCONSIN

CITY           SKY/WX    TMP DP  RH WIND       PRES   REMARKS
WAUSAU         CLOUDY    51  41  68 NW9       29.90S
6HR MIN TEMP:  42; 6HR MAX TEMP:  52;

MOSINEE        NOT AVBL
MARSHFIELD     CLOUDY    54  41  61 NW15      29.92S
6HR MIN TEMP:  42; 6HR MAX TEMP:  58;

STEVENS POINT  CLOUDY    50  39  66 N9        29.91S
WAUPACA        CLOUDY    54  45  70 NW9G17    29.91R
WAUTOMA        NOT AVBL
WISC RAPIDS    CLOUDY    55  40  56 N9        29.92F
6HR MIN TEMP:  43; 6HR MAX TEMP:  57;

CAMP DOUGLAS   NOT AVBL
$$

WIZ011>013-019>022-031-037>040-048>050-201900-
NORTHEAST WISCONSIN

CITY           SKY/WX    TMP DP  RH WIND       PRES   REMARKS
ANTIGO         CLOUDY    46  44  93 N8        29.90S
SHAWANO        CLOUDY    54  42  64 NW9       29.89S
OCONTO         CLOUDY    52  43  73 NW9       29.86F
STURGEON BAY   CLOUDY    50  41  71 N20       29.86F
6HR MIN TEMP:  48; 6HR MAX TEMP:  50;

GREEN BAY      CLOUDY    53  44  71 N14       29.88R
6HR MIN TEMP:  45; 6HR MAX TEMP:  53;

MANITOWOC      NOT AVBL
APPLETON       CLOUDY    52  43  71 NW10      29.89S
CLINTONVILLE   CLOUDY    52  41  66 N9        29.89S
OSHKOSH        CLOUDY    53  45  74 NW10      29.88S
6HR MIN TEMP:  46; 6HR MAX TEMP:  54;

$$

WIZ032>034-041-042-053>061-201900-
SOUTHWEST WISCONSIN

CITY           SKY/WX    TMP DP  RH WIND       PRES   REMARKS
LA CROSSE      MOSUNNY   62  43  49 NW12      29.93F
6HR MIN TEMP:  42; 6HR MAX TEMP:  64;

SPARTA         PTSUNNY   59  39  48 NW13G20   29.94S
VIROQUA        MOSUNNY   60  43  52 NW15      29.93S
BOSCOBEL       PTSUNNY   65  43  44 N12G20    29.92F
6HR MIN TEMP:  41; 6HR MAX TEMP:  65;

PRAIRIE DU CHI SUNNY     63  40  43 NW15      29.93F
PLATTEVILLE    MOSUNNY   61  43  51 NW14G21   29.92F
$$

WIZ056-057-062-063-064-067-068-201900-
SOUTH CENTRAL WISCONSIN

CITY           SKY/WX    TMP DP  RH WIND       PRES   REMARKS
REEDSBURG      PTSUNNY   59  43  55 NW10      29.90F
BARABOO/DELLS  CLOUDY    58  40  50 N10G23    29.91S
LONE ROCK      NOT AVBL
MINERAL POINT  MOSUNNY   63  39  42 NW15G23   29.92S
MADISON        MOSUNNY   60  42  51 NW14G23   29.89F
6HR MIN TEMP:  48; 6HR MAX TEMP:  61;

MIDDLETON      MOSUNNY   61  40  46 N16G22    29.90S
WATERTOWN      CLOUDY    55  45  68 NW8       29.88S
MONROE         MOSUNNY   59  43  55 NW17G24   29.90S
JANESVILLE     NOT AVBL
$$

WIZ051-052-058>065-066-070>072-201900-
SOUTHEAST WISCONSIN

CITY           SKY/WX    TMP DP  RH WIND       PRES   REMARKS
MILWAUKEE      MOSUNNY   60  48  64 N8        29.85S
6HR MIN TEMP:  48; 6HR MAX TEMP:  60;

WAUKESHA       PTSUNNY   55  45  67 W13       29.86S
MILWAUKEE/TIMM NOT AVBL
RACINE         PTSUNNY   59  47  64 NE14      29.86S
6HR MIN TEMP:  46; 6HR MAX TEMP:  61;

BURLINGTON     SUNNY     59  45  58 NW13      29.86S
KENOSHA        MOSUNNY   61  47  59 NW8       29.84F
6HR MIN TEMP:  44; 6HR MAX TEMP:  62;

FOND DU LAC    CLOUDY    53  44  71 NW13      29.88F
6HR MIN TEMP:  41; 6HR MAX TEMP:  55;

SHEBOYGAN      CLOUDY    53  45  74 NW10      29.86S
6HR MIN TEMP:  46; 6HR MAX TEMP:  55;

WEST BEND      CLOUDY    54  43  66 NW13      29.87R
JUNEAU         CLOUDY    53  44  71 NW9G17    29.90R
$$

LSZ147-162-201900-
LAKE SUPERIOR

STATION/POSITION TIME  TEMP    WIND        PRES    WAVE
                       AIR SEA DIR/SP/G            HT/PER
                 (UTC) (F)     (DEG/KT/KT) (MB)    (FT/S)
W MID LAKE BUOY  1650   47 46  300/  8/  8 1013.8R   1
DEVILS ISLAND    1700   49     330/ 11/ 12 1014.9R
PORT WING        1740   50     320/  9/ 10 1015.2R
SAXON HARBOR     1740   51     320/  8/ 10 1014.6R
$$

LMZ867-665-643>646-201900-
LAKE MICHIGAN

STATION/POSITION TIME  TEMP    WIND        PRES    WAVE
                       AIR SEA DIR/SP/G            HT/PER
                 (UTC) (F)     (DEG/KT/KT) (MB)    (FT/S)
CHAMBERS ISLAND  1700   50     300/ 13/ 20 1011.5R
N MID LAKE BUOY  1650   49 52  330/ 17/ 19 1010.2R   3/ 4
NORTHPORT PIER   1700   49     330/ 19/ 21 1010.8S
KEWAUNEE LAKESHO 1700   52     320/  7/ 11 1010.1R
SHEBOYGAN LAKESH 1700   52 50   10/  8/  9 1011.5R
PORT WASHINGTON  1740   58     340/  6/ 10 1011.5R
ATWATER BUOY     1700   53      10/  6/  8 1012.2R
MILWAUKEE LAKESH 1700   55      20/ 12/ 13   N/A
S MID LAKE BUOY  1650   53 55  320/ 12/ 16 1010.2S   2/ 5
KENOSHA   LAKESH 1700   55      20/  4/ 10 1010.8R
$$

TC  - TEMPERATURE IN CELSIUS
VSB - VISIBILITY IN STATUTE MILES
WCI - WIND CHILL INDEX
HX  - HEAT INDEX




USA.gov is the U.S. government's official web portal to all federal, state and local government web resources and services.